Location: Joplin, MO
(37.0842°N, 94.5133°W)
Time: 20:55:25
(UTC+02:00)

Transit 2A Rocket - Pass Details

Date: 30 March 2023
Orbit: 584 x 914 km, 66.7° (Epoch: 06 June)

Event Time Altitude Azimuth Distance (km) Brightness Sun altitude
Rises 02:09:40 0° 344° (NNW) 3,554 8.7 4.8°
Reaches altitude 10° 02:12:57 10° 0° (N) 2,602 7.8 4.1°
Maximum altitude 02:17:20 20° 46° (NE) 1,943 6.7 3.2°
Drops below altitude 10° 02:21:34 10° 93° (E) 2,514 7.0 2.4°
Sets 02:24:40 0° 110° (ESE) 3,399 7.7 1.8°
